Location: *
(49.0044°N, 9.5056°E)
Time: 11:55:05
(UTC+00:00)

ISS - Pass Details

Date: 22 September 2019
Orbit: 411 x 421 km, 51.6° (Epoch: 20 October)

Event Time Altitude Azimuth Distance (km) Brightness Sun altitude
Rises 19:18:43 0° 249° (WSW) 2,338 0.7 -19.6°
Reaches altitude 10° 19:20:48 10° 249° (WSW) 1,478 -0.4 -19.9°
Enters shadow 19:23:54 77° 248° (WSW) 427 -3.8 -20.4°
